This demonstration page uses our WeatherBlox Daily Observations layout. Learn more.

Left ArrowRight Arrow

Hourly Observations for March 9, 2018

Temp ( °F °C ) Dew Point ( °F °C ) Humidity (%) Winds ( mph kmh ) Pressure ( in mb ) Visibility ( mi km ) Precip ( " mm )
12:53 am 00:53 Clear 32 0 13 -10.6 45 45 SE 12 19 29.90 1013 10 16 0.00 0.00
1:53 am 01:53 Mostly Clear 32 0 14 -10 47 47 SE 9 15 29.89 1012 10 16 0.00 0.00
2:53 am 02:53 Mostly Cloudy 33 0.6 13 -10.6 43 43 SSE 15 24 29.84 1011 10 16 0.00 0.00
3:53 am 03:53 Mostly Cloudy 32 0 14 -10 47 47 SE 14 22 29.83 1010 10 16 0.00 0.00
4:53 am 04:53 Mostly Clear 29 -1.7 14 -10 54 54 SE 9 15 29.80 1009 10 16 0.00 0.00
5:53 am 05:53 Clear 27 -2.8 14 -10 58 58 SSE 9 15 29.78 1008 10 16 0.00 0.00
6:53 am 06:53 Clear 24 -4.4 15 -9.4 68 68 S 7 11 29.80 1009 10 16 0.00 0.00
7:53 am 07:53 Sunny 26 -3.3 16 -8.9 66 66 Calm 29.83 1010 10 16 0.00 0.00
8:53 am 08:53 Sunny 31 -0.6 17 -8.3 56 56 Calm 29.82 1010 10 16 0.00 0.00
9:53 am 09:53 Sunny 36 2.2 19 -7.2 50 50 SSW 6 9 29.81 1010 10 16 0.00 0.00
10:53 am 10:53 Sunny 42 5.6 19 -7.2 40 40 W 5 7 29.81 1010 10 16 0.00 0.00
11:53 am 11:53 Sunny 48 8.9 20 -6.7 33 33 NNW 12 19 29.82 1010 10 16 0.00 0.00
12:53 pm 12:53 Sunny 49 9.4 21 -6.1 33 33 N 13 20 29.82 1010 10 16 0.00 0.00
1:53 pm 13:53 Sunny 50 10 21 -6.1 32 32 NNE 12 19 29.82 1010 10 16 0.00 0.00
2:53 pm 14:53 Sunny 50 10 21 -6.1 32 32 NNE 12 19 29.82 1010 10 16 0.00 0.00
3:53 pm 15:53 Sunny 51 10.6 22 -5.6 32 32 ENE 6 9 29.82 1010 10 16 0.00 0.00
4:53 pm 16:53 Sunny 50 10 22 -5.6 33 33 N 8 13 29.83 1010 10 16 0.00 0.00
5:53 pm 17:53 Sunny 49 9.4 22 -5.6 35 35 NNE 8 13 29.85 1011 10 16 0.00 0.00
6:53 pm 18:53 Clear 42 5.6 22 -5.6 45 45 Calm 29.88 1012 7 11 0.00 0.00
7:53 pm 19:53 Clear 36 2.2 20 -6.7 52 52 E 3 6 29.89 1012 10 16 0.00 0.00
8:53 pm 20:53 Clear 42 5.6 24 -4.4 49 49 E 10 17 29.86 1011 10 16 0.00 0.00
9:53 pm 21:53 Clear 41 5 24 -4.4 51 51 ESE 12 19 29.85 1011 10 16 0.00 0.00
10:53 pm 22:53 Clear 38 3.3 23 -5 55 55 SE 14 22 29.85 1011 10 16 0.00 0.00
11:53 pm 23:53 Clear 37 2.8 23 -5 57 57 SSE 9 15 29.86 1011 10 16 0.00 0.00

Powered by AerisWeather